Wind_Speed
44 44 44 45 45 45 46 46 47 48 49 49 49 50 49 49 49 50 50 50 51 50 51 52 52 52 51 51 50 50 50 51 50 48 48 47 48 48 48 48 47 47 47
44 44 45 45 45 45 46 46 47 47 48 48 48 48 48 48 49 49 49 50 50 51 51 51 51 50 49 49 49 50 50 50 49 48 46 46 46 46 46 45 45 44 44
43 44 44 45 45 45 45 46 46 46 46 46 46 46 47 47 47 47 48 48 49 49 49 49 48 48 48 48 49 48 48 48 48 48 46 46 45 44 44 43 43 44 44
42 43 43 44 44 44 45 44 45 45 45 44 44 44 45 45 45 45 46 47 48 48 48 47 46 47 47 47 47 46 46 46 46 46 45 44 43 42 42 41 41 42 41
42 43 43 44 44 44 43 44 44 44 43 43 43 43 43 43 44 45 46 47 47 47 46 46 46 46 45 45 45 45 45 45 45 44 43 42 41 40 40 39 39 39 38
41 42 42 42 42 42 43 43 43 43 42 43 43 43 43 43 43 44 44 45 44 44 44 45 45 44 44 44 44 44 44 43 42 42 41 40 39 38 37 37 37 36 35
40 41 41 41 41 41 42 43 42 42 42 42 43 43 43 43 43 44 44 44 44 44 44 44 43 43 43 43 43 42 42 41 41 41 40 39 38 37 37 37 36 34 35
40 40 40 40 40 42 42 42 43 42 42 43 43 42 42 42 43 44 44 44 43 43 43 42 42 42 42 42 41 41 40 40 39 39 38 38 37 37 36 35 33 34 35
40 40 40 40 41 42 42 42 42 42 42 42 42 42 41 42 43 43 43 42 42 41 41 41 42 41 41 41 41 40 39 38 38 37 37 37 36 36 35 34 33 32 32
40 40 40 40 40 41 41 41 41 41 41 41 41 41 41 41 42 41 41 41 40 40 40 40 41 40 40 40 40 39 38 37 37 36 35 35 34 34 33 32 31 30 30
39 39 39 39 39 39 39 39 40 40 41 40 40 40 40 40 40 39 40 40 40 39 39 38 38 38 37 38 38 37 36 35 35 34 34 33 32 31 31 31 30 29 29
38 38 39 39 38 38 38 39 39 39 39 39 39 38 37 37 37 37 38 38 38 38 37 37 36 36 36 36 36 35 34 34 33 33 32 31 30 30 30 30 29 28 28
38 38 38 38 38 38 38 37 37 37 37 37 36 36 36 36 36 37 37 37 37 37 36 35 34 34 34 35 34 34 33 33 32 31 31 29 29 28 27 26 26 25 25
37 37 37 37 36 36 36 36 36 36 36 35 35 35 35 35 36 36 35 35 34 33 33 33 33 33 33 33 31 31 31 30 30 29 28 27 26 25 24 23 23 23 24
36 35 35 35 35 35 35 35 35 35 34 34 34 34 34 34 35 34 32 31 31 31 31 32 32 32 31 30 29 29 28 27 27 26 25 24 23 22 22 22 22 22 22
34 34 34 34 34 34 34 34 34 33 33 32 32 32 32 32 31 30 30 30 30 30 30 30 30 29 28 28 27 26 25 24 23 23 22 21 21 21 21 20 21 21 20
34 34 33 33 33 33 32 32 32 32 32 31 31 30 30 29 29 28 28 29 29 29 29 28 27 27 26 25 24 23 22 21 21 20 19 19 20 20 20 19 19 19 19
33 33 33 32 32 32 31 31 31 30 29 29 29 29 29 29 29 28 28 28 28 27 27 26 25 24 24 23 22 21 20 19 19 18 18 18 19 19 19 18 18 17 17
32 33 33 32 32 31 30 30 29 29 29 28 28 29 29 29 29 29 28 27 27 26 26 25 23 22 22 21 19 18 18 18 17 17 17 17 18 17 17 16 16 15 14
30 30 31 30 30 29 29 28 28 28 28 28 28 29 29 29 29 28 28 27 26 26 24 23 22 21 20 19 18 18 17 17 16 17 17 16 16 15 15 14 13 13 12
29 29 28 28 28 28 27 27 27 26 26 27 27 28 28 27 27 27 27 26 25 24 23 22 21 20 19 18 18 17 17 17 16 16 15 15 14 14 13 12 12 11 10
27 27 26 26 26 26 26 26 25 25 25 25 25 25 25 24 24 24 24 23 22 21 20 19 19 18 17 17 17 16 16 15 15 14 13 13 12 11 11 10 10 9 8
25 25 25 24 24 24 24 24 23 23 22 22 22 22 22 21 21 20 20 19 18 18 17 17 16 16 15 15 15 14 13 12 12 11 10 10 10 9 9 8 8 8 7
24 24 23 23 22 22 22 21 21 20 19 19 19 19 18 18 17 17 17 16 16 15 14 14 13 13 13 12 12 11 11 10 10 10 9 9 9 8 7 7 7 7 6
22 22 22 21 20 20 19 19 19 18 18 17 17 16 16 16 16 16 15 15 14 14 13 12 11 11 11 10 10 10 9 9 8 8 8 7 7 7 7 7 7 7 7
20 20 19 19 18 18 17 17 17 17 17 17 16 16 15 15 15 14 14 13 12 12 11 11 10 9 9 8 8 8 8 8 7 7 7 7 6 6 7 7 7 7 7
Wind_Direction
261 262 263 264 265 267 269 271 272 272 272 272 273 273 274 274 275 276 277 278 280 282 283 284 286 286 285 285 285 285 286 287 287 287 286 285 284 284 284 285 286 286 285
260 262 263 264 266 267 269 271 272 273 273 273 273 274 274 275 275 277 277 279 281 282 284 284 285 285 284 284 284 285 285 286 287 287 286 286 285 285 284 285 285 286 286
260 261 263 265 266 267 269 269 271 272 274 273 273 273 274 275 276 277 279 280 281 283 284 284 284 284 284 284 284 284 285 285 287 286 286 286 286 286 285 285 285 286 287
260 262 263 265 266 267 268 269 270 272 273 272 272 272 274 276 276 277 279 281 282 282 283 283 283 284 284 284 283 284 285 286 287 287 287 287 287 286 286 285 285 287 287
261 263 264 265 266 266 267 268 270 271 271 271 272 273 275 276 277 279 280 281 282 282 282 282 282 283 284 284 285 286 286 286 286 286 287 287 286 286 286 285 286 287 287
262 263 264 265 265 266 267 268 270 270 270 271 272 274 276 277 279 281 282 283 282 282 281 282 282 282 284 285 285 286 286 286 286 287 287 287 287 287 286 287 287 288 288
262 263 264 265 265 266 268 269 270 270 271 272 274 275 276 278 279 281 282 282 281 281 281 281 281 282 284 285 285 286 287 288 287 287 286 287 287 287 287 287 287 287 288
263 263 264 264 265 267 268 269 270 271 273 274 275 276 276 277 278 280 280 279 280 281 281 281 281 282 283 284 285 286 286 286 286 286 287 287 287 287 287 287 286 287 288
263 263 263 264 266 267 267 268 270 272 273 274 275 276 276 277 278 279 278 279 279 280 280 281 281 282 282 283 284 285 285 285 286 287 287 287 287 286 286 286 285 288 289
263 263 264 265 266 267 267 268 270 271 273 274 274 275 276 277 277 277 278 279 279 280 281 281 282 283 282 283 284 284 284 284 285 286 286 287 287 286 285 285 284 286 288
263 263 265 266 267 267 267 268 269 271 273 273 274 274 275 275 276 277 278 279 279 280 280 281 282 282 282 283 284 284 283 283 283 284 286 286 286 286 285 284 283 285 286
262 263 265 266 266 266 267 268 269 271 271 272 273 273 273 274 275 277 278 279 280 280 281 281 282 283 284 284 284 283 281 281 282 282 284 284 282 283 283 283 284 285 286
263 264 265 266 266 266 267 268 269 270 271 271 271 272 273 275 276 278 279 280 280 281 281 282 283 283 284 285 284 281 280 280 281 282 282 280 281 282 282 282 283 283 285
263 264 265 266 266 266 267 268 270 272 272 273 273 274 275 276 276 277 279 280 280 280 281 283 283 284 285 284 282 281 281 280 280 280 280 281 282 281 280 281 282 285 287
263 264 264 265 265 267 267 269 271 272 273 273 275 276 276 276 277 278 279 280 280 280 281 283 284 284 283 282 282 281 281 281 281 280 280 280 281 279 278 281 285 287 288
263 263 264 265 265 267 268 268 270 272 273 273 275 276 276 277 277 277 279 280 281 282 283 285 284 282 281 281 282 281 282 282 283 283 282 281 279 277 278 283 286 286 285
261 262 263 264 265 267 269 269 270 272 273 273 274 275 276 276 277 277 277 279 280 282 283 284 282 280 279 279 280 281 282 282 283 282 281 280 279 279 280 283 285 284 282
261 262 263 264 265 266 267 267 269 270 270 272 273 274 275 275 276 277 278 279 280 282 283 282 280 278 278 278 278 280 279 280 281 280 280 280 280 280 281 283 284 284 281
261 262 263 264 266 266 267 266 266 267 268 270 272 274 274 275 276 277 277 279 280 280 281 279 278 277 276 274 275 275 277 278 278 280 281 282 282 282 281 282 284 283 282
261 262 263 263 264 264 265 266 266 267 269 270 272 273 273 273 274 275 276 278 278 278 278 276 274 273 271 270 271 273 275 275 277 280 281 282 283 282 281 281 282 283 286
262 263 262 261 261 261 264 264 265 267 270 271 273 273 272 272 273 274 276 277 277 276 274 273 272 269 267 267 269 272 274 275 276 277 277 280 281 280 279 280 281 284 286
261 261 261 260 260 260 262 263 263 267 271 273 274 274 273 273 273 274 275 275 274 273 271 269 268 267 265 266 268 270 270 272 272 272 274 276 277 276 276 279 281 284 286
259 259 259 259 259 259 261 263 264 268 272 273 274 274 274 274 273 274 274 273 273 270 267 264 262 261 262 263 263 263 264 265 266 268 270 273 275 277 278 278 280 284 285
257 257 257 257 258 259 260 260 261 265 269 272 274 274 273 272 272 271 271 269 269 268 264 260 257 258 257 255 254 254 256 258 261 262 263 268 270 272 272 275 281 282 279
254 254 255 256 256 256 257 258 260 263 266 270 271 271 271 271 270 268 266 266 267 265 258 254 252 251 250 248 247 249 250 252 255 258 259 262 266 265 265 271 278 280 278
252 252 253 253 252 253 255 256 257 260 264 267 267 267 269 268 266 263 263 262 261 256 250 247 244 242 241 240 240 242 242 244 248 250 253 258 265 267 265 268 273 275 272
Height
5665 5665 5665 5665 5665 5665 5664 5663 5662 5661 5661 5660 5660 5659 5659 5658 5657 5656 5655 5653 5651 5648 5646 5642 5639 5636 5633 5629 5626 5623 5620 5617 5615 5616 5613 5610 5607 5603 5601 5597 5594 5590 5587
5654 5654 5654 5654 5653 5653 5653 5651 5650 5649 5649 5648 5647 5647 5646 5646 5645 5643 5642 5640 5638 5636 5633 5630 5627 5623 5620 5617 5614 5611 5608 5605 5602 5601 5601 5598 5595 5591 5588 5585 5582 5579 5576
5642 5643 5642 5642 5642 5642 5641 5640 5639 5638 5637 5636 5636 5635 5635 5634 5633 5631 5630 5628 5626 5623 5621 5617 5614 5611 5608 5605 5601 5598 5596 5593 5590 5588 5588 5586 5583 5580 5577 5575 5572 5569 5565
5631 5632 5631 5631 5631 5630 5630 5629 5628 5627 5626 5626 5625 5624 5623 5622 5621 5619 5617 5616 5613 5611 5608 5605 5602 5599 5595 5592 5590 5587 5584 5582 5580 5577 5576 5574 5572 5569 5566 5564 5561 5559 5555
5620 5621 5621 5620 5620 5619 5619 5618 5617 5616 5616 5615 5614 5613 5612 5611 5610 5608 5606 5604 5601 5599 5596 5593 5590 5587 5584 5581 5578 5576 5573 5571 5569 5566 5565 5563 5561 5559 5556 5554 5551 5549 5546
5610 5610 5610 5610 5609 5609 5608 5608 5607 5606 5605 5605 5604 5603 5602 5600 5598 5596 5594 5592 5590 5587 5585 5582 5580 5577 5574 5571 5568 5565 5562 5560 5558 5556 5554 5553 5551 5549 5546 5544 5542 5539 5538
5599 5599 5599 5599 5599 5599 5598 5597 5596 5596 5595 5594 5593 5592 5591 5589 5587 5585 5582 5580 5578 5576 5573 5571 5569 5566 5563 5560 5558 5555 5553 5550 5548 5546 5544 5543 5541 5539 5537 5535 5533 5531 5529
5588 5588 5588 5588 5588 5588 5587 5587 5586 5585 5584 5583 5582 5581 5580 5578 5576 5574 5571 5569 5567 5565 5562 5560 5558 5556 5553 5550 5548 5546 5543 5541 5538 5536 5535 5534 5532 5530 5528 5526 5524 5522 5521
5577 5578 5578 5578 5578 5577 5576 5576 5575 5574 5574 5572 5571 5570 5569 5567 5564 5562 5560 5558 5556 5554 5552 5550 5547 5545 5543 5540 5538 5536 5534 5532 5530 5527 5526 5524 5522 5520 5518 5517 5516 5514 5513
5567 5567 5567 5567 5567 5566 5566 5565 5564 5563 5563 5561 5560 5559 5557 5556 5553 5551 5549 5547 5546 5544 5542 5540 5537 5535 5532 5530 5528 5526 5525 5524 5521 5519 5517 5515 5513 5511 5510 5509 5508 5506 5505
5556 5556 5556 5556 5556 5555 5555 5554 5554 5553 5552 5551 5550 5548 5547 5545 5543 5541 5539 5537 5535 5533 5531 5529 5527 5524 5522 5520 5518 5516 5515 5513 5512 5510 5509 5507 5505 5504 5502 5501 5500 5499 5498
5545 5545 5545 5545 5545 5545 5545 5544 5543 5542 5541 5540 5539 5538 5536 5535 5533 5531 5529 5527 5524 5522 5521 5519 5517 5515 5513 5511 5509 5507 5506 5504 5503 5501 5500 5498 5497 5496 5495 5493 5492 5491 5490
5534 5534 5534 5534 5534 5534 5534 5533 5533 5532 5531 5530 5529 5528 5527 5526 5524 5522 5519 5517 5514 5512 5511 5509 5507 5505 5503 5501 5500 5498 5497 5495 5494 5493 5491 5490 5489 5488 5487 5486 5485 5484 5483
5523 5523 5523 5524 5523 5523 5523 5523 5522 5522 5521 5520 5519 5519 5518 5516 5514 5512 5510 5508 5505 5503 5501 5499 5497 5496 5494 5492 5491 5489 5488 5487 5486 5485 5483 5482 5481 5480 5479 5479 5478 5477 5476
5513 5513 5513 5513 5513 5514 5513 5513 5513 5512 5511 5511 5510 5509 5508 5506 5505 5503 5501 5499 5496 5494 5492 5490 5489 5487 5485 5484 5482 5481 5480 5479 5477 5476 5476 5475 5474 5474 5473 5473 5472 5471 5470
5503 5503 5503 5504 5504 5504 5504 5504 5503 5502 5502 5501 5500 5499 5498 5497 5495 5494 5492 5490 5488 5486 5484 5482 5480 5479 5477 5476 5475 5473 5472 5471 5470 5469 5469 5469 5468 5468 5467 5467 5465 5465 5464
5493 5493 5494 5494 5494 5494 5494 5494 5494 5494 5492 5492 5491 5490 5489 5488 5487 5485 5484 5482 5480 5478 5476 5474 5472 5471 5470 5468 5467 5466 5466 5465 5464 5463 5463 5463 5462 5462 5461 5461 5460 5459 5458
5482 5483 5484 5484 5485 5485 5485 5485 5484 5484 5484 5483 5482 5481 5480 5480 5478 5477 5476 5474 5472 5470 5468 5466 5465 5464 5463 5462 5461 5460 5460 5459 5459 5458 5458 5458 5457 5456 5456 5455 5454 5454 5453
5473 5474 5474 5475 5475 5475 5475 5475 5475 5475 5475 5475 5474 5473 5472 5471 5470 5469 5467 5466 5464 5463 5461 5460 5458 5457 5456 5456 5455 5455 5454 5454 5454 5454 5453 5453 5452 5452 5451 5450 5450 5449 5448
5463 5464 5464 5465 5466 5466 5466 5466 5466 5467 5467 5466 5466 5465 5464 5462 5461 5460 5458 5457 5456 5455 5454 5453 5452 5451 5451 5450 5450 5450 5450 5450 5449 5449 5449 5449 5448 5447 5447 5446 5446 5445 5444
5454 5454 5455 5456 5456 5457 5457 5458 5458 5458 5458 5458 5457 5456 5455 5454 5453 5451 5450 5449 5448 5447 5446 5446 5446 5445 5445 5445 5445 5445 5445 5445 5445 5445 5445 5444 5444 5443 5443 5442 5442 5442 5441
5445 5445 5446 5447 5448 5448 5449 5449 5450 5450 5450 5449 5448 5447 5446 5445 5444 5443 5442 5441 5440 5440 5439 5439 5439 5440 5440 5440 5440 5440 5440 5440 5440 5440 5440 5440 5440 5440 5439 5439 5439 5439 5439
5436 5437 5438 5438 5439 5440 5441 5441 5442 5442 5442 5441 5441 5440 5439 5438 5437 5436 5436 5435 5434 5433 5433 5433 5434 5434 5434 5435 5435 5435 5436 5436 5436 5437 5437 5437 5437 5436 5436 5436 5436 5436 5436
5428 5429 5430 5431 5432 5432 5433 5434 5435 5435 5435 5435 5434 5433 5433 5432 5431 5431 5430 5429 5429 5429 5429 5429 5429 5429 5430 5430 5431 5431 5432 5432 5433 5433 5433 5433 5434 5434 5434 5434 5434 5434 5434
5421 5421 5422 5423 5424 5425 5426 5427 5428 5428 5429 5428 5428 5428 5427 5426 5426 5425 5425 5425 5425 5425 5425 5425 5425 5426 5426 5427 5427 5428 5429 5429 5429 5430 5430 5431 5431 5431 5431 5431 5432 5431 5431
5413 5414 5415 5417 5418 5419 5420 5421 5422 5422 5423 5423 5423 5422 5422 5421 5421 5421 5421 5421 5421 5421 5421 5422 5422 5423 5424 5424 5425 5425 5426 5426 5427 5427 5428 5428 5428 5429 5429 5429 5429 5429 5429